Weather in Accra

Ghana     5°38′04″N   0°10′18″E
temp.,
°C
wind,
m/s
gust,
m/s
humid.,
%
clouds,
%
prec.,
mm/h
press.,
hPa
HPBL,
m
11 april, sun
sun1100:00+27wsw357851 0.0 1009465
03:00+26wsw248285 0.0 1008438
06:00+26wsw248610 0.0 1008252
09:00+31sw55595 0.0 10101049
12:00+35s534123 0.0 10081860
15:00+34s64425 0.0 10071554
18:00+30s67585 0.0 1008768
21:00+28ssw467390 0.0 1011715
12 april, mon
mon1200:00+27sw3575100 0.1 1011471
03:00+26wnw238055 0.0 1010285
06:00+26wsw358295 0.8 1010269
09:00+30s456196 0.0 1012845
12:00+36ssw443899 0.0 10091512
15:00+35s754122 0.0 10071192
18:00+30s68646 0.0 1008744
21:00+28ssw4673100 0.0 1012715
13 april, tue
tue1300:00+27sw4678100 0.1 1012642
03:00+27sw3577100 0.0 1010512
06:00+26sw248199 0.0 1011315
09:00+31ssw335866 0.0 10131102
12:00+36s544084 0.0 10101717
15:00+34s754532 0.0 10091357
18:00+29ssw7864100 0.0 1009841
21:00+28sw3470100 0.0 1012707
14 april, wed
wed1400:00+27sw4674100 0.0 1011584
03:00+27sw357999 0.0 1010448
06:00+26wsw2483100 0.0 1011301
09:00+30sw4560100 0.0 10121087
12:00+35s6441100 0.0 10112093
15:00+34s754354 0.0 10081497
18:00+29ssw676171 0.2 1009742
21:00+28ssw3571100 0.0 1012494
15 april, thu
thu1500:00+27ssw3575100 0.1 1011438
03:00+26sw3682100 0.0 1009400
06:00+25w238973 0.0 1011262
09:00+30wsw446012 0.0 10111010
12:00+35s4340100 0.0 10092061
15:00+34s754488 0.0 10071235
18:00+30ssw575930 0.4 1008614
21:00+27ssw467499 0.0 1010504